Zurück zum Katalog

STARLINK-35962

AktivKommunikationVLEO
NORAD 66518·PAYLOAD·🇺🇸 United States

Gestartet Nov 19, 2025 von Cape Canaveral Space Force Station

Loading…

Nächste Überflüge (nächste 24 Stunden)

TLE

AktuellSource: CelesTrak SupGP

Epoche: Sep 15, 2026, 03:18 UTC

1 66518C 25265C   26258.13798611  .00004261  00000+0  15432-3 0  2583
2 66518  43.0026 288.3353 0001366 267.1573  92.9978 15.27578374    16

Verfolge STARLINK-35962 in Echtzeit mit AllMySat

Download on the App Store